スペースウォッチ彗星

C/2000 OF8 ( Spacewatch )

English version
Home page
Updated on May 27, 2001

---------------------------------------------------------------------

・ プロフィール

発見日 2000年7月24日
発見光度 21.3等
発見者 A. Descour, J. Larsen, R. S. McMillan, J. V. Scotti (Steward Observatory, Kitt Peak)

・ 軌道要素

   The following improved orbital elements by Kenji Muraoka, are
  from 55 observations 2000 July 24 to 2001 Apr. 23, perturbations
  by 9 Planets, Moon and 5 minor planets were taken into account.
   The mean residual is +/- 0.48 arc seconds.

      Epoch  =  2001 July 30.0  TT       JDT = 2452120.5
          T  =  2001 Aug.  4.77375       +/- 0.00187 (m.e.) TT
       Peri. =  256.06697                +/- 0.00148
       Node  =  117.09207                +/- 0.00172   (2000.0)
       Incl. =  152.43656                +/- 0.00114
          q  =    2.1731102              +/- 0.0000725 AU
          e  =    1.0018143              +/- 0.0000124
        1/a  =   -0.0008349              +/- 0.0000057 1/AU
  orig. 1/a  =   +0.0000469
  fut.  1/a  =   -0.0025352

・ 星図

・ 光度変化

        m1 = 10.0 + 5 logΔ + 10.0 log r

---------------------------------------------------------------------

軌道要素は村岡健治氏の計算によるものです。
星図は StellaNavigator Ver.2.0 for Windows (アストロアーツ 編著 / アスキー出版局刊) で作成したものです。
光度グラフはComet for Windowsで作成したものです。

---------------------------------------------------------------------

Copyright(C) Seiichi Yoshida (comet@aerith.net). All rights reserved.